Weather History for KMTC - March, 2013

Change the Weather History Date:

Sunday, March 17, 2013

  Actual Average Record
Temperature  
Mean Temperature 26 °F -  
Max Temperature 29 °F 40 °F - (-1)
Min Temperature 21 °F 24 °F - (-1)
Degree Days  
Heating Degree Days 40    
Moisture  
Dew Point 17 °F    
Average Humidity 69    
Maximum Humidity 89    
Minimum Humidity 55    
Precipitation  
Precipitation 0.00 in - - ()
Snow  
Snow 0.00 in - - ()
Snow Depth 2.00 in    
Sea Level Pressure  
Sea Level Pressure 30.20 in    
Wind  
Wind Speed 9 mph (North)    
Max Wind Speed 16 mph    
Max Gust Speed -    
Visibility 12 miles    
Events Snow    
Averages and records for this station are not official NWS values.
T = Trace of Precipitation, MM = Missing Value Source: NWS Daily Summary

Daily Weather History Graph

Daily Weather History Graph

Search for Another Location

Airport or City:

Trip Planner

Search our weather history database for the weather conditions in past years. The results will help you decide how hot, cold, wet, or windy it might be!

Date:

Astronomy

Mar. 17, 2013 Rise Set
Actual Time 7:39 AM EDT 7:40 PM EDT
Civil Twilight 7:11 AM EDT 8:08 PM EDT
Nautical Twilight 6:38 AM EDT 8:41 PM EDT
Astronomical Twilight 6:05 AM EDT 9:14 PM EDT
Moon 10:44 AM EDT (3/17) 12:54 AM EDT (3/17)
Length of Visible Light 12h 57m
Length of Day
12h 00m
Waxing Crescent, 31% of the Moon is Illuminated
Mar 17
Waxing Crescent
Mar 19
First Quarter
Mar 27
Full
Apr 3
Last Quarter
Apr 10
New

Hourly Weather History & Observations

Time (EDT) Temp. Windchill Dew Point Humidity Pressure Visibility Wind Dir Wind Speed Gust Speed Precip Events Conditions
12:55 AM 27.3 °F 22.0 °F 24.4 °F 89% 30.06 in 10.0 mi SSW 4.6 mph - N/A   Overcast
1:55 AM 29.3 °F 22.3 °F 20.7 °F 70% 30.06 in 10.0 mi WSW 6.9 mph - N/A   Overcast
2:55 AM 29.7 °F 21.3 °F 21.4 °F 71% 30.07 in 10.0 mi WSW 9.2 mph - N/A   Overcast
3:35 AM 30.2 °F 20.8 °F 21.2 °F 69% 30.09 in 10.0 mi West 11.5 mph - N/A   Overcast
3:55 AM 29.7 °F 21.3 °F 22.1 °F 73% 30.09 in 10.0 mi WNW 9.2 mph - N/A   Overcast
4:05 AM 30.2 °F 21.9 °F 23.0 °F 75% 30.09 in 10.0 mi WNW 9.2 mph - N/A   Overcast
4:11 AM 30.2 °F 21.9 °F 23.0 °F 75% 30.05 in 12.0 mi NW 9.2 mph - N/A Snow Light Snow
4:55 AM 26.6 °F 15.7 °F 21.2 °F 80% 30.11 in 12.0 mi NNW 12.7 mph - N/A Snow Light Snow
5:20 AM 26.6 °F 17.5 °F 19.4 °F 74% 30.07 in 12.0 mi NNW 9.2 mph - N/A   Mostly Cloudy
5:55 AM 24.8 °F 19.1 °F 17.6 °F 74% 30.14 in 12.0 mi NW 4.6 mph - N/A   Scattered Clouds
6:55 AM 23.0 °F 17.0 °F 17.6 °F 80% 30.17 in 12.0 mi NNW 4.6 mph - N/A   Mostly Cloudy
7:06 AM 24.8 °F 16.9 °F 17.6 °F 74% 30.12 in 12.0 mi NNW 6.9 mph - N/A Snow Light Snow
7:42 AM 24.8 °F 13.4 °F 17.6 °F 74% 30.14 in 12.0 mi NNW 12.7 mph - N/A   Mostly Cloudy
7:55 AM 24.8 °F 11.9 °F 15.8 °F 69% 30.20 in 12.0 mi North 16.1 mph - N/A   Mostly Cloudy
8:08 AM 23.0 °F 9.6 °F 15.8 °F 74% 30.16 in 12.0 mi North 16.1 mph - N/A   Mostly Cloudy
8:55 AM 23.0 °F 11.7 °F 14.0 °F 68% 30.24 in 12.0 mi North 11.5 mph - N/A   Mostly Cloudy
9:55 AM 23.0 °F 10.6 °F 14.0 °F 68% 30.27 in 12.0 mi North 13.8 mph - N/A   Mostly Cloudy
10:55 AM 24.8 °F 14.0 °F 14.0 °F 64% 30.29 in 12.0 mi North 11.5 mph - N/A   Scattered Clouds
11:55 AM 26.6 °F 15.2 °F 15.8 °F 64% 30.30 in 12.0 mi NNE 13.8 mph - N/A   Mostly Cloudy
12:55 PM 28.4 °F 18.5 °F 15.8 °F 59% 30.30 in 12.0 mi North 11.5 mph - N/A   Mostly Cloudy
1:55 PM 28.4 °F 20.4 °F 14.0 °F 55% 30.29 in 12.0 mi ENE 8.1 mph - N/A   Mostly Cloudy
2:55 PM 28.4 °F 18.5 °F 14.0 °F 55% 30.28 in 12.0 mi NE 11.5 mph - N/A   Mostly Cloudy
3:55 PM 28.4 °F 18.0 °F 14.0 °F 55% 30.27 in 12.0 mi NNE 12.7 mph - N/A   Mostly Cloudy
4:55 PM 28.4 °F 17.5 °F 15.8 °F 59% 30.27 in 12.0 mi ENE 13.8 mph - N/A   Mostly Cloudy
5:55 PM 26.6 °F 15.7 °F 14.0 °F 59% 30.27 in 12.0 mi East 12.7 mph - N/A   Scattered Clouds
6:55 PM 24.8 °F 14.0 °F 12.2 °F 59% 30.29 in 12.0 mi NE 11.5 mph - N/A   Scattered Clouds
7:55 PM 23.0 °F 13.1 °F 12.2 °F 63% 30.30 in 12.0 mi NNE 9.2 mph - N/A   Scattered Clouds
8:55 PM 21.2 °F 12.6 °F 12.2 °F 68% 30.31 in 12.0 mi NNE 6.9 mph - N/A   Scattered Clouds
9:55 PM 21.2 °F 12.6 °F 12.2 °F 68% 30.30 in 12.0 mi NNE 6.9 mph - N/A   Partly Cloudy
10:55 PM 21.2 °F 9.5 °F 14.0 °F 74% 30.28 in 12.0 mi NE 11.5 mph - N/A   Partly Cloudy
11:55 PM 23.4 °F 11.1 °F 15.8 °F 73% 30.25 in 10.0 mi ENE 13.8 mph - N/A   Clear